This is the latest recevied weather packets stored in our database for station/object BM6HML-1. If no packets are shown the sender has not sent any weather packets the latest 10 day(s).
| Time | Temp. | Humidity | Pressure | Rain* | Wind** | Luminosity | Snow |
|---|---|---|---|---|---|---|---|
| 1777715660 | 31.67° C | 74% | 1008.8 hPa | - | - | - | - |
| 1777714459 | 31.67° C | 73% | 1008.6 hPa | - | - | - | - |
| 1777713260 | 31.67° C | 71% | 1008.3 hPa | - | - | - | - |
| 1777712060 | 32.22° C | 71% | 1008.3 hPa | - | - | - | - |
| 1777710859 | 31.67° C | 71% | 1008.3 hPa | - | - | - | - |
| 1777709660 | 31.67° C | 72% | 1008.4 hPa | - | - | - | - |
| 1777708460 | 31.67° C | 72% | 1008.5 hPa | - | - | - | - |
| 1777707260 | 31.67° C | 73% | 1008.4 hPa | - | - | - | - |
| 1777706060 | 31.11° C | 74% | 1008.6 hPa | - | - | - | - |
| 1777704860 | 31.11° C | 75% | 1008.8 hPa | - | - | - | - |
| 1777703660 | 31.11° C | 75% | 1008.7 hPa | - | - | - | - |
| 1777702460 | 31.11° C | 76% | 1008.8 hPa | - | - | - | - |
| 1777701260 | 31.11° C | 76% | 1009 hPa | - | - | - | - |
| 1777700060 | 30.56° C | 77% | 1009 hPa | - | - | - | - |
| 1777698860 | 30.56° C | 78% | 1009.4 hPa | - | - | - | - |
| 1777697660 | 30.56° C | 77% | 1009.8 hPa | - | - | - | - |
| 1777696459 | 30.56° C | 76% | 1010 hPa | - | - | - | - |
| 1777695260 | 30.56° C | 76% | 1010.3 hPa | - | - | - | - |
| 1777694060 | 30.56° C | 76% | 1010.5 hPa | - | - | - | - |
| 1777692860 | 30.56° C | 75% | 1010.8 hPa | - | - | - | - |
| 1777691660 | 30° C | 75% | 1010.9 hPa | - | - | - | - |
| 1777690461 | 30° C | 75% | 1011.2 hPa | - | - | - | - |
| 1777689260 | 30° C | 74% | 1011.5 hPa | - | - | - | - |
| 1777688060 | 30° C | 75% | 1011.7 hPa | - | - | - | - |
| 1777686860 | 30.56° C | 75% | 1012 hPa | - | - | - | - |
* Rain since midnight (hover to see other rain measurements)
** Current wind speed in m/s (hover to see current wind gust speed)